Location: Neuvy Saint Sepulchre
(46.5953°N, 1.8122°E)
Time: 05:20:54
(UTC+02:00)

X-37B - Visible Passes

Search period start: 21 October 2021 00:00
Search period end: 31 October 2021 00:00
Orbit: 385 x 389 km, 45.0° (Epoch: 17 October)

Date Brightness Start Highest point End Pass type
(mag) Time Alt. Az. Time Alt. Az. Time Alt. Az.
21 Oct 0.8 19:27:20 10° WSW 19:30:30 65° S 19:33:39 10° E visible
21 Oct 2.1 21:03:55 10° W 21:06:02 34° WSW 21:06:02 34° WSW visible
22 Oct 0.9 20:05:32 10° W 20:08:41 59° S 20:10:16 25° ESE visible
22 Oct 4.1 21:42:23 10° W 21:42:33 11° W 21:42:33 11° W visible
23 Oct 1.8 20:43:51 10° W 20:46:47 34° SSW 20:46:50 34° SSW visible
24 Oct 1.4 19:45:26 10° W 19:48:31 47° SSW 19:51:11 13° ESE visible
24 Oct 3.7 21:22:44 10° WSW 21:23:29 13° WSW 21:23:29 13° WSW visible
25 Oct 2.6 20:23:55 10° W 20:26:31 23° SSW 20:27:55 17° SSE visible
26 Oct 2.1 19:25:23 10° W 19:28:18 34° SSW 19:31:13 10° SE visible
27 Oct 3.4 20:04:16 10° WSW 20:06:11 15° SSW 20:08:06 10° S visible
